FENGYUN 1C DEB

基本信息
目录编号:
37444
目录名称:
FENGYUN 1C DEB
国际标识:
1999-025EHN
轨道中心:
EARTH
物体状态:
在轨
发射日期:
1999-05-10 UTC
轨道信息
数据来源: 国际轨道数据
星历时间: 2026-08-29T20:07:56+0800
半长轴: 7103.719km
偏心率: 0.0237958
轨道倾角: 99.080°
近地点辐角: 291.911°
升交点赤经: 346.879°
平近点角: 65.694°
近地点: 556.543km
远地点: 894.621km
周期: 99.309分钟
每日圈数: 14.500206
详细信息
发射场:
TSC
轨道高度:
LEO
数据来源:
AOE Integration Group
参考系:
TEME
时间系统:
UTC
历元类型:
SGP4
2D轨道图
3D轨道图
轨道高度分析图
轨道倾角分析图
轨道综合分析图
查看轨道综合分析图